sat.trackr.live / text

‹ back to catalog

STARLINK-36661

NORAD 67831 · 2026-033L

PAYLOAD ACTIVE UNKNOWN

§ Identity

Operator
Country
US
Launch date
2026-02-16
Launch site
AFETR
Launch vehicle
Mass (kg)
RCS (m²)

Purposes: comms

External: N2YO · Heavens-Above · Gunter

§ Orbital elements

Epoch: 2026-05-25T03:43:49.006848Z

Period
94.27 min
Inclination
42.9994°
Eccentricity
0.0001257
Mean motion
15.27587980 rev/d
Perigee alt
482.2 km
Apogee alt
483.9 km
Semi-major
6,861.2 km
B*
4.1698e-4
RAAN
195.6403°
Arg perigee
277.5447°
Mean anomaly
82.5262°
Rev number
1,636

§ Raw data

STARLINK-366611 67831U 26033L   26145.15542832  .00011233  00000+0  41698-3 0  99972 67831  42.9994 195.6403 0001257 277.5447  82.5262 15.27587980 16366

JSON: /api/v1/satellites/67831 · /tle

For live sub-satellite position, see the globe view (requires WebGL).

§ Visibility from observer

Set your observer location to see the next 7 days of passes ≥ 10°. The values pass through the URL so the page stays shareable.

No JS? Fill the form by hand. The geolocation button needs JavaScript.